Location: ?????????
(53.2086°N, 54.0693°E)
Time: 15:01:53
(UTC+00:00)

Cosmos 2237 Rocket - Pass Details

Date: 08 December 2019
Orbit: 836 x 849 km, 71.0° (Epoch: 22 January)

Event Time Altitude Azimuth Distance (km) Brightness Sun altitude
Rises 14:37:53 0° 204° (SSW) 3,402 5.8 -21.3°
Reaches altitude 10° 14:40:19 10° 203° (SSW) 2,470 5.0 -21.7°
Maximum altitude 14:45:59 77° 119° (ESE) 875 2.1 -22.5°
Enters shadow 14:47:56 43° 41° (NE) 1,185 2.6 -22.8°
